星链-5665 (STARLINK-5665 )

导读 | 星芒AI

STARLINK-5665 是 SpaceX Starlink 卫星互联网项目中的一颗低轨通信卫星。它属于 Starlink 群体的第五组发射批次,旨在为全球用户提供高速互联网服务。该卫星运行在约 550 公里的轨道高度,采用先进的相控阵天线和激光通信技术,以提升网络连接的稳定性和效率。作为 Starlink 计划的一部分,STARLINK-5665 有助于扩大覆盖范围,特别是在偏远和网络基础设施薄弱的地区。

基本信息
目录编号:
55361
目录名称:
STARLINK-5665
国际标识:
2023-013AG
轨道中心:
EARTH
卫星名称:
星链-5665
卫星全名:
星链-5665 (STARLINK-5665 )
卫星状态:
在轨 (已飞行1013 天)
发射日期:
2023-01-26 UTC
国别 :
美国 (US)
星等 :
--
轨道信息
数据来源 国际轨道数据
星历时间: 2025-11-04T11:01:42+0800
9小时前
查看轨道信息
半长轴: 6937.231km
偏心率: 0.000219
轨道倾角: 43.007°
近地点辐角 265.191°
升交点赤经 249.409°
平近点角 94.868°
近地点: 557.576km
远地点: 560.616km
周期: 95.838分钟
每日圈数: 15.025314
详细信息
固有亮度:
5
最大亮度:
2.5
卫星平台:
Starlink v1.5
覆盖范围:
全球
运营商:
太空探索技术公司
运营商所在国:
美国
制造商(研发单位):
太空探索技术公司
制造商所在国:
美国
使用方式:
暂无
卫星简介
星链(Starlink)计划是由太空探索技术公司(SpaceX)提出的一个巨型低轨卫星互联网星座项目,计划在2019年至2024年间在太空搭建由约1.2万颗卫星组成的“星链”网络,其中1584颗将部署在地球上空550千米处的近地轨道,并从2020年开始工作。该卫星仍在工作。
2D轨道图
3D轨道图
轨道高度分析图
轨道倾角分析图
轨道综合分析图
查看轨道综合分析图